Theta_e
309 309 309 309 310 310 310 311 311 311 312 312 312 312 313 314 317 320 323 324 323 319 319 319 319 319 320 319 320 318 323 323 322 323 324 334 340 338 339 341 343 341 343 344 342
310 310 310 310 310 310 310 311 311 311 311 312 312 313 314 317 322 322 321 319 321 319 319 319 319 320 321 320 320 321 323 322 319 321 340 339 339 337 341 342 342 345 347 343 343
309 309 309 310 310 310 311 311 311 311 311 312 312 313 314 318 323 323 323 316 318 319 320 319 320 320 322 319 318 317 322 319 331 327 337 339 340 340 340 341 341 344 340 342 341
311 310 310 310 310 310 310 311 311 311 312 312 313 313 316 319 323 323 319 317 319 320 320 320 320 321 321 321 318 322 336 335 335 334 337 339 339 340 341 340 339 338 338 340 340
315 315 315 315 314 313 312 312 311 312 312 312 313 313 316 319 321 322 318 318 319 320 320 320 320 319 321 319 319 328 336 336 337 337 337 338 338 339 338 337 337 337 336 336 335
317 317 318 318 318 317 316 315 314 313 312 313 313 314 317 320 322 321 320 319 320 321 321 321 320 320 319 318 322 336 337 338 337 336 337 337 336 336 336 336 336 335 334 333 334
316 317 319 319 318 317 315 314 314 313 313 313 314 317 318 320 323 324 321 321 321 321 321 320 320 320 319 318 333 334 337 336 337 334 337 337 338 337 335 334 334 334 331 331 330
314 318 319 319 320 320 319 315 313 313 313 315 317 318 321 324 324 322 320 321 321 320 320 320 320 320 318 317 320 323 327 337 338 338 337 338 341 334 333 334 335 335 333 331 330
313 317 318 319 319 320 320 322 317 317 317 318 320 321 323 324 323 322 321 321 321 320 320 320 320 319 320 325 326 335 337 340 339 339 339 339 339 332 332 332 332 332 331 329 330
313 315 316 318 320 320 322 325 326 325 322 323 323 323 324 324 324 322 321 321 320 320 320 320 319 325 324 327 328 330 341 340 341 337 337 337 338 332 330 330 330 330 330 328 328
313 314 315 317 320 322 323 323 323 324 324 325 324 324 324 324 325 324 322 320 320 319 322 321 325 327 325 324 328 336 339 340 338 336 336 336 336 334 330 329 327 327 327 327 326
313 314 315 316 320 323 323 323 323 323 324 324 324 324 324 324 324 323 322 321 322 324 322 325 325 322 324 333 336 337 339 340 337 334 335 334 335 332 331 329 329 328 328 327 326
313 314 317 317 319 323 323 323 323 323 324 325 326 326 325 324 323 322 322 322 324 325 325 327 324 322 324 327 328 328 332 337 338 334 334 335 335 334 331 327 328 327 327 326 326
312 313 315 318 319 323 323 322 323 324 329 328 329 326 325 324 323 322 322 322 324 326 327 326 324 325 325 325 324 327 326 333 336 336 337 333 336 335 333 328 328 326 326 325 325
312 313 315 317 321 322 322 321 322 324 328 326 324 323 322 322 322 323 323 326 327 325 328 327 328 327 327 325 324 326 332 335 336 330 335 335 336 335 332 332 330 327 325 325 323
313 313 314 318 322 322 323 322 325 330 332 328 323 322 323 321 322 322 326 327 326 328 328 328 326 326 327 324 323 330 332 324 334 325 329 335 336 337 334 333 331 327 326 324 322
313 313 314 315 319 321 322 322 329 332 327 327 325 322 325 325 325 327 328 328 328 331 329 327 326 324 323 326 324 324 327 327 326 326 327 333 335 336 332 331 329 327 324 321 321
312 313 316 320 320 319 319 329 333 328 327 326 326 327 329 327 328 329 329 329 328 326 329 330 329 325 322 325 325 324 326 327 327 327 326 332 333 336 329 325 324 323 322 320 318
318 322 322 322 321 322 325 331 327 327 325 326 326 328 329 329 329 330 329 330 325 327 330 330 327 323 322 322 324 326 325 322 327 323 328 331 331 331 327 326 323 320 319 318 317
323 323 322 322 322 320 327 326 326 324 322 324 328 327 330 330 331 331 329 328 329 324 325 327 329 324 323 323 323 325 323 325 325 324 322 329 332 332 329 325 325 322 319 318 317
324 323 323 321 319 319 328 326 325 321 323 326 327 328 326 329 331 329 328 327 326 327 325 325 329 326 324 325 325 325 325 326 325 327 326 327 331 326 326 327 326 322 320 318 317
324 325 323 322 325 319 326 324 322 322 322 324 324 327 326 328 329 327 328 328 327 323 326 323 327 328 325 323 325 327 327 326 329 330 329 329 330 323 325 323 323 321 318 317 314
324 324 323 325 327 325 322 323 324 326 325 326 327 328 327 328 330 326 327 327 326 328 327 326 327 326 325 323 324 329 327 326 325 326 329 329 331 323 325 324 322 319 314 312 310
323 327 323 322 319 322 323 324 326 324 325 325 326 325 328 329 328 328 329 327 326 325 322 325 327 325 324 325 325 329 324 326 326 328 329 328 326 325 323 323 319 314 311 311 309
322 320 318 325 324 319 319 322 324 326 326 325 326 327 329 331 329 330 329 327 325 322 322 327 328 329 329 328 327 325 324 324 324 326 325 324 322 323 320 319 316 312 311 309 309
319 320 321 322 321 321 322 325 325 328 327 326 326 324 325 328 326 329 327 327 327 325 327 324 330 328 330 327 324 325 324 323 324 323 322 322 322 317 314 313 312 311 309 309 308
317 320 319 320 322 323 324 323 323 327 326 325 324 323 324 324 324 323 322 321 324 326 327 328 329 328 330 327 327 328 327 324 323 321 322 324 322 316 315 313 310 309 309 308 308
Wind_Speed
5 5 5 5 5 5 5 6 5 6 6 7 8 10 11 10 8 5 5 5 4 4 4 3 0 4 2 2 3 3 2 1 1 2 4 8 6 9 10 12 12 7 7 16 15
4 4 4 4 4 4 4 4 4 5 6 7 8 9 10 11 6 10 8 3 2 5 3 2 4 3 4 3 2 0 3 5 5 4 9 16 12 6 8 10 14 21 22 19 15
4 3 3 3 3 3 3 3 4 4 5 6 7 8 9 7 6 5 9 6 8 6 3 6 7 5 3 2 3 3 7 7 14 2 15 14 27 9 5 13 10 15 19 16 14
4 4 3 3 3 3 3 3 3 3 4 5 6 8 8 3 3 5 6 8 8 5 6 8 9 3 2 3 3 7 21 14 13 8 6 11 15 27 24 12 13 16 16 16 13
7 7 6 5 4 3 2 2 2 3 4 4 6 7 5 2 3 5 4 7 5 5 7 8 10 4 2 5 6 13 13 23 27 33 33 34 28 18 20 17 17 17 16 17 15
7 6 5 5 4 3 3 3 3 3 3 5 6 7 6 1 3 2 6 5 3 4 7 8 6 7 3 6 7 20 25 24 26 27 20 26 22 7 13 13 15 16 17 14 14
6 6 6 5 5 4 4 4 3 2 3 4 5 7 3 0 1 2 0 2 1 3 6 9 7 4 3 12 27 25 22 16 15 4 17 18 19 11 11 14 16 16 16 15 15
6 5 5 5 6 8 8 7 5 4 3 3 5 8 3 5 4 3 7 2 1 3 8 7 8 3 3 14 12 4 3 4 18 3 5 5 6 8 9 12 15 13 13 15 14
5 4 4 5 7 7 8 6 4 4 3 5 5 6 1 6 7 3 6 5 2 6 10 6 0 2 3 7 5 6 6 7 5 11 4 3 10 10 11 15 14 13 12 11 14
6 4 5 6 8 11 9 5 3 2 4 4 4 2 3 8 9 1 5 6 6 6 2 1 3 3 3 3 4 5 7 9 8 12 20 19 14 14 11 14 13 12 11 11 12
6 4 4 5 8 11 13 5 5 2 8 3 6 5 4 10 3 1 1 2 3 3 3 4 5 7 7 9 11 13 13 15 10 3 10 12 11 9 10 14 13 10 8 8 10
6 3 3 4 6 9 14 10 9 5 5 5 5 8 5 4 3 5 2 1 3 4 2 6 8 3 11 14 17 16 17 8 9 8 8 10 9 6 7 7 8 9 7 7 8
5 2 3 3 3 6 8 14 12 7 1 4 3 4 1 2 3 6 2 5 8 11 10 9 4 4 11 10 11 4 5 10 8 12 12 13 4 6 4 6 7 6 6 6 6
5 1 1 6 1 4 5 12 12 6 2 3 1 1 1 1 3 5 3 1 3 9 8 8 3 4 5 4 1 3 0 15 19 8 4 9 2 8 8 7 5 4 5 6 5
6 1 1 4 3 3 6 13 11 5 3 2 1 2 3 3 2 6 8 7 4 4 5 4 2 4 7 4 1 5 10 14 14 3 7 9 4 3 7 10 10 8 6 4 5
6 2 2 4 2 3 8 14 5 1 3 2 3 2 3 5 3 3 8 12 6 8 10 5 2 4 4 5 7 15 7 4 6 2 4 4 4 7 7 12 8 8 5 5 5
5 4 4 4 2 5 9 8 0 3 2 5 3 3 5 5 4 5 6 8 3 3 5 4 5 3 6 2 5 6 1 5 5 4 4 1 6 4 10 1 2 8 5 4 5
6 7 8 5 2 4 6 2 4 1 2 2 1 5 4 8 5 6 3 4 8 3 2 2 2 6 9 4 3 5 3 4 6 5 5 2 3 5 10 11 11 7 6 4 4
11 11 9 7 5 5 1 3 1 1 3 3 2 6 5 4 2 4 7 4 7 4 1 3 4 2 7 8 4 2 4 3 2 1 3 2 0 9 7 7 6 6 6 4 8
9 9 11 7 5 4 3 2 1 2 4 1 4 2 4 6 3 4 7 5 3 11 2 2 4 3 3 3 11 6 2 2 2 5 9 1 2 5 11 1 4 4 6 8 6
5 3 10 4 4 4 3 2 2 5 2 5 3 4 4 3 5 3 6 3 6 5 8 2 2 3 1 6 7 6 4 4 1 3 3 4 4 4 7 3 3 4 5 4 3
4 3 9 3 4 3 2 1 5 5 9 8 5 6 4 5 4 3 3 3 10 3 4 4 2 3 3 1 6 8 5 3 3 2 2 2 3 4 4 5 4 4 5 2 4
4 4 14 2 2 2 2 2 6 3 7 4 3 5 4 3 2 2 2 5 10 5 2 2 3 2 3 5 3 6 7 3 1 1 4 4 3 4 3 3 6 6 8 7 6
2 1 8 14 7 2 3 3 4 7 6 6 3 2 3 3 5 3 3 5 6 5 7 4 3 3 3 3 2 3 9 7 3 4 2 4 3 3 2 4 5 6 7 7 7
5 3 2 2 6 4 1 3 3 4 5 10 4 5 2 2 2 3 2 2 5 5 5 3 3 4 6 6 7 5 6 10 10 5 4 3 4 3 5 4 6 6 6 6 7
4 3 3 3 3 1 6 4 3 2 5 4 6 5 4 4 3 1 0 1 2 5 4 3 4 3 3 5 5 6 4 4 5 3 1 2 3 4 6 8 7 6 5 6 8
8 7 3 6 3 1 2 2 2 4 8 7 5 4 9 5 3 3 1 4 3 2 2 2 5 2 2 4 4 2 4 3 2 2 3 6 3 8 5 5 6 5 5 7 9
Wind_Direction
306 297 290 287 288 298 300 298 301 308 315 324 330 332 333 336 337 20 81 96 90 97 119 101 124 315 298 183 182 158 230 25 357 20 80 24 115 57 67 80 48 50 84 119 133
315 307 306 302 302 298 290 291 301 310 322 330 333 335 337 347 70 79 55 55 125 121 104 38 13 76 104 119 189 24 11 29 9 8 90 68 73 67 83 79 59 77 94 114 118
323 316 316 321 314 292 288 298 304 319 324 332 335 335 341 3 98 61 34 64 132 120 66 22 25 102 100 115 64 59 6 320 3 78 113 93 57 42 112 52 79 98 100 116 125
358 352 354 341 324 311 313 311 320 324 327 335 334 338 348 56 87 54 48 107 123 97 48 44 43 71 86 64 62 107 44 55 21 63 87 80 85 64 67 89 96 97 111 127 129
37 37 35 24 16 358 340 330 326 325 326 336 339 347 10 10 88 47 71 121 99 63 31 35 41 58 51 64 99 102 91 75 76 81 87 87 72 73 68 80 91 98 95 92 87
33 25 22 8 358 341 331 331 336 322 335 344 343 353 3 14 91 48 50 116 85 41 27 25 5 13 97 59 56 114 92 94 85 79 84 82 66 71 59 90 88 86 75 70 73
22 24 18 15 12 6 4 351 334 347 359 351 353 349 339 41 182 355 250 198 144 6 9 5 4 3 348 106 124 117 99 87 26 39 123 73 57 70 71 73 74 72 70 66 78
16 26 24 27 32 32 35 36 37 47 42 11 352 349 317 27 338 157 171 166 112 5 353 351 339 349 67 116 127 170 117 91 25 92 38 106 98 74 78 80 67 81 80 77 81
19 22 17 18 24 21 19 17 43 52 12 348 353 348 57 23 49 81 175 194 283 320 339 340 27 82 104 137 130 35 98 59 54 24 99 125 119 104 94 96 80 76 75 79 80
21 9 1 19 24 21 26 47 33 2 354 0 5 350 36 342 345 166 228 254 272 301 5 57 51 75 88 209 112 127 113 62 83 67 89 93 110 114 121 114 105 95 86 84 73
12 6 359 12 33 42 40 38 12 24 333 292 297 287 327 343 65 117 209 270 303 57 101 32 121 87 79 85 104 103 108 114 111 92 78 112 120 128 117 110 103 101 90 72 59
0 356 340 3 42 51 45 48 29 332 316 317 291 273 315 359 2 32 83 80 43 94 106 110 78 30 103 108 108 116 118 111 96 89 110 129 111 125 129 113 121 124 110 92 76
3 343 259 320 46 43 32 18 6 340 280 313 312 293 314 17 349 15 86 96 77 80 73 83 82 125 111 122 119 156 137 170 138 112 126 137 138 172 132 125 105 93 109 91 80
358 350 232 238 48 24 23 359 354 351 45 339 321 48 10 186 53 39 55 82 70 95 80 75 67 83 99 99 259 111 20 149 148 165 174 209 193 220 194 195 165 174 157 134 97
356 357 136 163 129 54 347 346 335 327 84 327 323 19 48 63 350 39 37 55 105 115 154 103 72 62 58 14 221 57 142 151 160 145 154 199 253 141 199 225 213 196 182 128 100
0 34 113 150 136 347 327 333 321 278 63 42 322 16 101 33 25 41 79 75 82 67 75 86 37 32 354 58 67 134 120 99 195 203 259 170 249 188 194 236 215 186 137 124 103
27 89 111 126 155 297 308 327 6 55 329 7 356 2 86 11 58 41 57 51 52 126 117 71 30 4 20 38 111 189 149 310 278 272 337 162 216 24 195 16 185 159 136 142 140
85 104 99 86 46 324 327 63 71 4 7 27 39 69 72 8 45 26 94 87 42 47 127 166 175 15 348 21 341 41 350 334 314 316 336 182 283 55 79 87 84 117 150 166 181
111 103 70 53 37 4 54 69 102 5 319 341 75 55 46 28 72 66 33 49 26 1 81 145 130 147 36 38 317 59 24 359 298 106 263 14 245 95 77 78 100 115 126 193 225
118 91 41 32 13 354 79 104 15 274 332 82 85 22 56 10 69 57 24 14 0 30 298 81 133 26 29 358 44 47 64 300 357 298 309 182 343 13 357 212 158 155 202 219 240
112 85 9 11 4 45 83 63 322 7 75 40 80 79 65 41 46 55 14 25 1 341 64 39 13 76 75 34 19 32 36 38 48 329 311 315 71 6 351 34 167 201 214 230 261
79 65 3 32 49 45 75 323 343 352 45 61 79 64 52 37 64 87 74 350 337 296 50 25 71 69 96 48 56 61 34 17 327 53 54 318 87 2 22 68 105 96 92 95 66
76 57 29 96 84 47 347 87 46 44 30 52 71 43 54 64 103 86 92 13 26 49 72 151 36 340 147 200 72 43 17 32 85 233 42 344 56 44 104 104 52 97 92 86 72
72 56 33 59 67 67 17 29 101 47 64 60 86 134 112 71 43 111 106 29 27 75 74 92 66 35 10 11 351 48 27 29 29 38 55 42 351 70 59 14 80 94 92 83 59
51 71 55 19 38 63 54 353 52 43 54 35 59 38 64 101 82 88 90 102 42 36 50 68 95 92 75 81 90 82 50 46 59 49 33 14 341 42 21 51 104 99 87 66 33
71 71 67 54 0 13 10 24 77 101 15 34 94 62 70 74 30 90 120 36 52 45 63 32 114 114 88 93 87 74 44 49 56 54 104 285 315 85 107 109 108 106 83 33 21
51 59 63 11 15 8 26 39 64 131 51 79 113 87 62 42 358 348 59 84 79 74 90 54 139 174 108 150 314 235 10 5 319 263 315 328 27 159 149 135 132 107 56 34 13